Location: ?????????
(54.7630°N, 39.4991°E)
Time: 07:39:22
(UTC+00:00)

Cosmos 1092 Rocket - Pass Details

Date: 14 April 2026
Orbit: 952 x 995 km, 83.0° (Epoch: 9 May)

Event Time Altitude Azimuth Distance (km) Brightness Sun altitude
Rises 22:44:39 0° 349° (N) 3,665 7.9 -23.3°
Reaches altitude 10° 22:47:13 10° 353° (N) 2,709 7.1 -23.1°
Maximum altitude 22:53:22 65° 75° (ENE) 1,047 4.2 -22.8°
Enters shadow 22:56:56 26° 150° (SSE) 1,786 5.1 -22.5°
